Location: Feudal
(51.8839°N, 107.6105°W)
Time: 04:14:29
(UTC+00:00)

Envisat - Pass Details

Date: 24 January 2022
Orbit: 764 x 765 km, 98.2° (Epoch: 25 May)

Event Time Altitude Azimuth Distance (km) Brightness Sun altitude
Rises 10:31:49 0° 29° (NNE) 3,244 6.8 -40.8°
Reaches altitude 10° 10:35:35 10° 58° (ENE) 2,311 6.1 -40.3°
Maximum altitude 10:37:48 13° 84° (E) 2,118 5.9 -39.9°
Drops below altitude 10° 10:40:01 10° 110° (ESE) 2,303 5.9 -39.6°
Sets 10:43:45 0° 139° (SE) 3,223 6.5 -39.1°
